Flag for Hungary Weather past 2 weeks in Sopron, Hungary

Now
62 °F

Cool.


Feels Like: 62 °F
Forecast: 62 / 83 °F
Wind: 3 mph from North

Location: Eisenstadt

Current Time: Jul 26, 2014 at 2:01:48 AM

Latest Report: Jul 26, 2014 at 1:00 AM


Visibility: N/A

Pressure: 29.93 "Hg

Humidity: 93%

Dew point: 60 °F

Location of SopronLocation

Historic Weather in Sopron — Graph

°F

Sopron temperature yesterday

Maximum temperature yesterday: 76 °F (at 4:00 PM)
Minimum temperature yesterday: 63 °F (at 1:00 AM)
Average temperature yesterday: 68 °F

Past Weeks' High & Low Weather Summary

 TemperatureHumidityPressure
High91 °F (Jul 20, 4:00 PM)95% (Jul 14, 3:00 AM)30.09 "Hg (Jul 14, 3:00 AM)
Low56 °F (Jul 11, 7:00 AM)32% (Jul 17, 5:00 PM)29.65 "Hg (Jul 21, 6:00 PM)
Average72 °F66%29.89 "Hg
* Reported Midnight between Jul 10 and Jul 11 — Midnight between Jul 25 and Jul 26, Sopron, Weather by CustomWeather, © 2014

Note: Actual official high and low records may vary slightly from our data, if they occured in-between our weather recording intervals... More about our weather records

Advertising

Sopron weather history for previous 24 hours

 ConditionsComfort  
Time TempWeatherWind HumidityBarometerVisibility
12:00 AM
Jul 26
62 °FMild.2 mph93%29.93 "HgN/A
11:00 PM
Jul 25
63 °FPassing clouds.2 mph91%29.93 "Hg9 mi
10:00 PM65 °FMild.2 mph89%29.93 "HgN/A
9:00 PM68 °FMild.1 mph84%29.91 "HgN/A
8:00 PM73 °FPartly sunny.2 mph67%29.90 "Hg9 mi
7:00 PM73 °FMild.3 mph67%29.90 "HgN/A
6:00 PM75 °FMild.2 mph62%29.90 "HgN/A
5:00 PM75 °FPartly sunny.1 mph59%29.90 "Hg16 mi
4:00 PM76 °FMild.2 mph57%29.90 "HgN/A
3:00 PM76 °FMild.2 mph57%29.91 "HgN/A
2:00 PM71 °FMild.No wind69%29.93 "HgN/A
1:00 PM67 °FMild.1 mph74%29.94 "HgN/A
12:00 PM66 °FMild.1 mph80%29.94 "HgN/A
11:00 AM64 °FMild.No wind91%29.95 "HgN/A
10:00 AM64 °FFog.2 mph92%29.94 "HgN/A
9:00 AM66 °FSprinkles. Cloudy.1 mph84%29.92 "HgN/A
8:00 AM65 °FLight rain. Overcast.1 mph84%29.91 "Hg7 mi
7:00 AM64 °FOvercast.1 mph85%29.90 "Hg9 mi
6:00 AM65 °FOvercast.1 mph80%29.89 "Hg9 mi
5:00 AM66 °FOvercast.2 mph77%29.87 "Hg9 mi
4:00 AM65 °FMild.3 mph81%29.87 "HgN/A
3:00 AM63 °FMild.2 mph85%29.86 "HgN/A
2:00 AM63 °FPassing clouds.5 mph86%29.88 "Hg9 mi
Weather by CustomWeather, © 2014

See weather overviewHow to use our weather pages